Notices

What's New in latest Release from April 7th, 2021:

- Updated Glossary, including Speed of Maximum Gust, and Total Hourly Precipitation

- Updated national and regional climate services offices contacts and prices information

- Addition of station inventory lists for 1981-2010, 1971-2000, and 1961-1990 Normals.

If you haven't already, please take our survey and provide feedback about our website: https://eccc.sondage-survey.ca/f/LanguageSelection.aspx?s=442ca660-fcf1-47c0-95a9-59707d6fd709

Hourly Data Report for October 23, 2019

CARBERRY CS
MANITOBA
Current Station Operator: ECCC - MSC

49°54'20.900" N
99°21'26.800" W
383.50 m
5010547
71170
WZE

Download Data

Hourly Data (October 2019)
Hourly Data Report for October 23, 2019
TIME
LST
Temp Definition
°C
Dew Point Definition
°C
Rel Hum Definition
%
Precip. Amount Definition
mm

Wind Dir Definition
10's deg

Wind Spd Definition
km/h
Visibility Definition
km
Stn Press Definition
kPa
Hmdx Definition


Wind Chill Definition


Weather Definition


00:00 -2.2 -4.2 86 0.0 33 11   96.38   -6 LegendNANA
01:00 -1.4 -4.1 81 0.0 33 13   96.42   -6 LegendNANA
02:00 -4.5 -5.8 90 0.0 29 9   96.48   -8 LegendNANA
03:00 -4.9 -6.5 88 0.0 29 10   96.54   -9 LegendNANA
04:00 -4.2 -6.1 87 0.0 28 13   96.62   -9 LegendNANA
05:00 -4.4 -6.6 85 0.0 29 12   96.69   -9 LegendNANA
06:00 -5.2 -7.0 87 0.0 28 12   96.75   -10 LegendNANA
07:00 -4.9 -6.3 90 0.0 28 13   96.79   -10 LegendNANA
08:00 -3.5 -5.5 86 0.0 28 15   96.86   -9 LegendNANA
09:00 -0.9 -4.4 77 0.0 29 13   96.95   -5 LegendNANA
10:00 1.7 -4.4 64 0.0 32 15   97.02     LegendNANA
11:00 3.4 -5.3 53 0.0 35 21   97.08     LegendNANA
12:00 3.8 -5.6 50 0.0 32 19   97.14     LegendNANA
13:00 3.2 -4.4 57 0.0 1 17   97.14     LegendNANA
14:00 3.8 -5.3 51 0.0 34 14   97.16     LegendNANA
15:00 3.9 -5.0 52 0.0 36 12   97.21     LegendNANA
16:00 4.3 -6.1 47 0.0 34 10   97.27     LegendNANA
17:00 3.0 -3.9 61 0.0 36 11   97.39     LegendNANA
18:00 0.2 -4.4 71 0.0 35 9   97.46     LegendNANA
19:00 -0.9 -4.9 74 0.0 34 7   97.55   -3 LegendNANA
20:00 -1.6 -5.3 76 0.0 34 7   97.62   -4 LegendNANA
21:00 -3.5 -5.8 84 0.0 26 6   97.67   -6 LegendNANA
22:00 -5.3 -6.6 90 0.0 28 7   97.70   -9 LegendNANA
23:00 -4.8 -6.3 89 0.0 28 9   97.72   -9 LegendNANA

Notes on Data Quality.

Legend

  • E = Estimated
  • M = Missing
  • NA = Not Available*
  • [empty] = Indicates an unobserved value
Date modified: